[ hide orbit diagram ]
For accurate long-term ephemerides, please instead use our Horizons system.This orbit viewer was implemented using two-body methods, and hence should not be used for determining accurate long-term trajectories (over several years or decades) or planetary encounter circumstances.
Orbital Elements at Epoch 2459200.5 (2020-Dec-17.0) TDB
Reference: JPL 40 (heliocentric ecliptic J2000)
Element | Value | Uncertainty (1-sigma) | Units |
e | .02332615261208914 | 2.4901e-08 | |
a | 2.997673771953049 | 1.8013e-08 | au |
q | 2.927749576067216 | 7.9347e-08 | au |
i | 8.534281193982611 | 8.6108e-07 | deg |
node | 276.0507448473287 | 4.4827e-06 | deg |
peri | 344.1200302644892 | 2.7762e-05 | deg |
M | 276.6817397609135 | 2.6309e-05 | deg |
tp | 2459639.245495953398 (2022-Feb-28.74549595) | 0.00013767 | TDB |
period | 1895.723435534797 5.19 | 1.7087e-05 4.678e-08 | d yr |
n | .1899011180913324 | 1.7117e-09 | deg/d |
Q | 3.067597967838883 | 1.8433e-08 | au |
|
| | Orbit Determination Parameters
Additional Information
|
[ hide covariance matrix ]
Orbital Elements at Epoch 2457248.5 (2015-Aug-14.0) TDB
Reference: JPL 40 (heliocentric ecliptic J2000)
Element | Value | Uncertainty (1-sigma) | Units |
e | .02411529018094726 | 2.4794e-08 | |
q | 2.927767180600097 | 7.8822e-08 | au |
tp | 2457717.172680049628 (2016-Nov-24.67268005) | 0.00013703 | TDB |
node | 276.1446499939411 | 4.4781e-06 | deg |
peri | 339.0120074628197 | 2.7265e-05 | deg |
i | 8.534054916533609 | 8.6166e-07 | deg |
|
| | Orbit Determination Parameters
Additional Information
|
Orbit Covariance (6×6)
|
|
e |
q |
tp |
node |
peri |
i |
e |
6.147194558257958E-16 |
-1.906500566427775E-15 |
2.318661413140279E-13 |
-1.006598990623323E-14 |
1.102357979204817E-13 |
1.117505304252824E-15 |
q |
-1.906500566427775E-15 |
6.212835589362143E-15 |
-1.516460089793344E-12 |
3.066766146433439E-14 |
-5.062716837789757E-13 |
-4.043493346674341E-15 |
tp |
2.318661413140279E-13 |
-1.516460089793344E-12 |
1.877656906363751E-8 |
-8.699773233433381E-11 |
3.672955985198527E-9 |
-4.467704320535186E-11 |
node |
-1.006598990623323E-14 |
3.066766146433439E-14 |
-8.699773233433381E-11 |
2.005357632458916E-11 |
-3.619640181376106E-11 |
2.854555524161648E-12 |
peri |
1.102357979204817E-13 |
-5.062716837789757E-13 |
3.672955985198527E-9 |
-3.619640181376106E-11 |
7.433899955277136E-10 |
-1.113347290147367E-11 |
i |
1.117505304252824E-15 |
-4.043493346674341E-15 |
-4.467704320535186E-11 |
2.854555524161648E-12 |
-1.113347290147367E-11 |
7.424518059806662E-13 |
|
Physical Parameter Table
Parameter |
Symbol |
Value |
Units |
Sigma |
Reference |
Notes |
absolute magnitude |
H |
13.28 |
|
n/a |
E2021B10 |
|
diameter |
diameter |
8.046 |
km |
0.211 |
urn:nasa:pds:neowise_diameters_albedos::2.0[mainbelt] (http://adsabs.harvard.edu/abs/2011ApJ...741...68M) |
|
geometric albedo |
albedo |
0.273 |
|
0.096 |
urn:nasa:pds:neowise_diameters_albedos::2.0[mainbelt] (http://adsabs.harvard.edu/abs/2011ApJ...741...68M) |
|
|
48300 Kronk | Discovered 2002 June 11 by C. W. Juels and P. R. Holvorcem at Fountain Hills. |
Gary W. Kronk (b. 1956) is an amateur astronomer, programer-analyst and writer who was so inspired by comet C/1973 E1 (Kohoutek) as a teenager that he began a quest to catalogue every comet recorded in human history. Volume One (Ancient Comets to 1799) of his four-part Cometography was published in 1999. |
NOTE: some special characters may not display properly (any characters within {} are an attempt to place the proper accent above a character) |
Reference: 20040107/MPCPages.arc | Last Updated: 2004-01-07 |
|
[ hide close-approach data ]
Close-Approach Data ...sorted by Date/Time (TDB)
|
Date/Time (TDB) |
Time Uncertainty (days_HH:MM) |
Body |
Nominal Distance (au) |
Minimum Distance (au) |
Maximum Distance (au) |
V-relative (km/s) |
V-infinity (km/s) |
JD (TDB) |
Time Uncertainty (minutes) |
Semi-major axis (km) |
Semi-minor axis (km) |
range-LOV angle (deg) |
N-sigma |
BP |
Orbit Ref. |
Reference |
Modified |
1941-May-28 13:42 |
00:02 |
Jupiter |
1.99682090111345 |
1.9968206662052 |
1.99682113602216 |
3.89684438062296 |
3.78642642711441 |
2430143.071139245 |
1.94765014518067 |
111.190053215432 |
8.95897402322861 |
89.191152332699 |
8183466.18863495 |
T |
40 |
CATAB v2.0f-lin.ifort 2021-Apr-13 10:08:39 |
2021-Apr-13 10:08 |
2024-Jun-20 11:38 |
< 00:01 |
Jupiter |
1.99827287109481 |
1.99827265374569 |
1.99827308844393 |
3.9426817469456 |
3.83366466397746 |
2460481.985001728 |
0.285371721083144 |
19.4024497578315 |
8.7524983870162 |
80.8256127454728 |
8740265.00308993 |
T |
40 |
CATAB v2.0f-lin.ifort 2021-Apr-13 10:08:39 |
2021-Apr-13 10:08 |
2107-Jul-13 09:14 |
00:02 |
Jupiter |
1.99310978338274 |
1.99310956417714 |
1.99311000258868 |
3.96398243630384 |
3.85528287834167 |
2490818.884804775 |
2.46221016301364 |
145.441335728261 |
9.08829359225087 |
-89.6211613475266 |
8343290.96403303 |
T |
40 |
CATAB v2.0f-lin.ifort 2021-Apr-13 10:08:39 |
2021-Apr-13 10:08 |
2190-Aug-05 17:50 |
00:05 |
Jupiter |
1.98802105303323 |
1.98802078022267 |
1.98802132585002 |
3.9949445418162 |
3.88683104767686 |
2521158.243291454 |
4.64410601169867 |
279.246670947526 |
9.0592221733989 |
89.5785338196318 |
8414872.30929329 |
T |
40 |
CATAB v2.0f-lin.ifort 2021-Apr-13 10:08:39 |
2021-Apr-13 10:08 |
|
|